This is the latest recevied weather packets stored in our database for station/object K5UBE. If no packets are shown the sender has not sent any weather packets the latest 10 day(s).
| Time | Temp. | Humidity | Pressure | Rain* | Wind** | Luminosity | Snow |
|---|---|---|---|---|---|---|---|
| 1778125168 | 10.56° C | 59% | 1021.5 hPa | 0 mm | - | - | - |
| 1778124866 | 10.56° C | 58% | 1021.6 hPa | 0 mm | - | - | - |
| 1778124563 | 11.11° C | 58% | 1021.4 hPa | 0 mm | - | - | - |
| 1778124260 | 11.11° C | 56% | 1021.3 hPa | 0 mm | - | - | - |
| 1778123955 | 11.67° C | 54% | 1021.1 hPa | 0 mm | - | - | - |
| 1778123652 | 12.78° C | 51% | 1021 hPa | 0 mm | - | - | - |
| 1778123349 | 13.33° C | 49% | 1020.9 hPa | 0 mm | - | - | - |
| 1778123046 | 13.33° C | 49% | 1020.9 hPa | 0 mm | - | - | - |
| 1778122743 | 13.33° C | 49% | 1021 hPa | 0 mm | - | - | - |
| 1778122441 | 13.89° C | 47% | 1020.7 hPa | 0 mm | - | - | - |
| 1778122138 | 13.89° C | 47% | 1020.6 hPa | 0 mm | - | - | - |
| 1778121835 | 13.89° C | 47% | 1020.4 hPa | 0 mm | - | - | - |
| 1778121531 | 14.44° C | 47% | 1020.2 hPa | 0 mm | - | - | - |
| 1778121228 | 14.44° C | 46% | 1020.1 hPa | 0 mm | - | - | - |
| 1778120925 | 15° C | 44% | 1019.3 hPa | 0 mm | - | - | - |
| 1778120622 | 16.11° C | 42% | 1019 hPa | 0 mm | - | - | - |
| 1778120317 | 16.11° C | 42% | 1018.7 hPa | 0 mm | - | - | - |
| 1778120013 | 16.67° C | 41% | 1018.1 hPa | 0 mm | - | - | - |
| 1778119711 | 18.33° C | 35% | 1017.2 hPa | 0 mm | - | - | - |
| 1778119407 | 18.89° C | 35% | 1017 hPa | 0 mm | - | - | - |
| 1778119105 | 18.89° C | 34% | 1016.3 hPa | 0 mm | - | - | - |
| 1778118803 | 19.44° C | 33% | 1016.2 hPa | 0 mm | - | - | - |
| 1778118500 | 19.44° C | 33% | 1015.9 hPa | 0 mm | - | - | - |
| 1778118196 | 21.67° C | 25% | 1015.6 hPa | 0 mm | - | - | - |
| 1778117892 | 21.67° C | 19% | 1015.7 hPa | 0 mm | - | - | - |
* Rain latest hour (hover to see other rain measurements)
** Current wind speed in m/s (hover to see current wind gust speed)